Weather History for Stockholm Arlanda, Sweden

Change the Weather History Date:

Tuesday, February 12, 2013

  Actual Average Record
Temperature  
Mean Temperature 29 °F -  
Max Temperature 32 °F 33 °F 42 °F (2000)
Min Temperature 26 °F 21 °F 6 °F (2004)
Degree Days  
Heating Degree Days 36    
Moisture  
Dew Point 29 °F    
Average Humidity 99    
Maximum Humidity 100    
Minimum Humidity 93    
Precipitation  
Precipitation 0.00 in - - ()
Sea Level Pressure  
Sea Level Pressure 30.14 in    
Wind  
Wind Speed 7 mph ()    
Max Wind Speed 13 mph    
Max Gust Speed -    
Visibility 4.5 miles    
Events Snow    
Averages and records for this station are not official NWS values.
T = Trace of Precipitation, MM = Missing Value Source: Averaged Metar Reports

Daily Weather History Graph

Daily Weather History Graph

Search for Another Location

Airport:

Trip Planner

Search our weather history database for the weather conditions in past years. The results will help you decide how hot, cold, wet, or windy it might be!

Date:

Astronomy

Feb. 12, 2013 Rise Set
Actual Time 7:32 AM CET 4:33 PM CET
Civil Twilight 6:48 AM CET 5:17 PM CET
Nautical Twilight 6:00 AM CET 6:05 PM CET
Astronomical Twilight 5:12 AM CET 6:53 PM CET
Moon 7:33 AM CET (2/12) 8:10 PM CET (2/12)
Length of Visible Light 10h 28m
Length of Day
9h 00m
Waxing Crescent, 6% of the Moon is Illuminated
Feb 12
Waxing Crescent
Feb 17
First Quarter
Feb 25
Full
Mar 4
Last Quarter
Mar 11
New

Hourly Weather History & Observations

Time (CET) Temp. Windchill Dew Point Humidity Pressure Visibility Wind Dir Wind Speed Gust Speed Precip Events Conditions
12:20 AM 26.6 °F 21.2 °F 26.6 °F 100% 30.15 in 6.2 mi NNW 4.6 mph - N/A   Overcast
12:50 AM 26.6 °F 20.0 °F 26.6 °F 100% 30.15 in 6.2 mi North 5.8 mph - N/A   Overcast
1:20 AM 26.6 °F 21.2 °F 26.6 °F 100% 30.15 in 6.2 mi NW 4.6 mph - N/A   Mostly Cloudy
1:50 AM 26.6 °F 19.1 °F 26.6 °F 100% 30.15 in 6.2 mi North 6.9 mph - N/A   Mostly Cloudy
2:20 AM 26.6 °F 20.0 °F 26.6 °F 100% 30.15 in 6.2 mi North 5.8 mph - N/A   Mostly Cloudy
2:50 AM 28.4 °F 21.2 °F 28.4 °F 100% 30.15 in 6.2 mi North 6.9 mph - N/A   Overcast
3:20 AM 28.4 °F 22.2 °F 28.4 °F 100% 30.15 in 5.0 mi North 5.8 mph - N/A   Mostly Cloudy
3:50 AM 28.4 °F 23.3 °F 28.4 °F 100% 30.15 in 6.2 mi North 4.6 mph - N/A   Mostly Cloudy
4:20 AM 28.4 °F 23.3 °F 28.4 °F 100% 30.15 in 6.2 mi North 4.6 mph - N/A   Mostly Cloudy
4:50 AM 28.4 °F 23.3 °F 28.4 °F 100% 30.15 in 6.2 mi North 4.6 mph - N/A   Mostly Cloudy
5:20 AM 28.4 °F 23.3 °F 28.4 °F 100% 30.15 in 6.2 mi NNE 4.6 mph - N/A   Overcast
5:50 AM 28.4 °F 23.3 °F 28.4 °F 100% 30.15 in 6.2 mi NNE 4.6 mph - N/A   Overcast
6:20 AM 28.4 °F 22.2 °F 28.4 °F 100% 30.15 in 5.6 mi North 5.8 mph - N/A   Overcast
6:50 AM 30.2 °F 24.3 °F 30.2 °F 100% 30.15 in 5.6 mi NNE 5.8 mph - N/A   Mostly Cloudy
7:20 AM 30.2 °F 23.4 °F 30.2 °F 100% 30.15 in 4.3 mi NNE 6.9 mph - N/A   Mostly Cloudy
7:50 AM 30.2 °F 22.6 °F 30.2 °F 100% 30.15 in 3.7 mi North 8.1 mph - N/A Snow Light Snow
8:20 AM 30.2 °F 22.6 °F 30.2 °F 100% 30.15 in 4.3 mi NNE 8.1 mph - N/A Snow Light Snow
8:50 AM 30.2 °F 21.9 °F 30.2 °F 100% 30.15 in 5.6 mi NE 9.2 mph - N/A   Mostly Cloudy
9:20 AM 30.2 °F 21.9 °F 30.2 °F 100% 30.15 in 6.2 mi NNE 9.2 mph - N/A   Mostly Cloudy
9:50 AM 30.2 °F 21.9 °F 30.2 °F 100% 30.18 in 6.2 mi ENE 9.2 mph - N/A   Mostly Cloudy
10:20 AM 30.2 °F 21.9 °F 30.2 °F 100% 30.18 in 6.2 mi NE 9.2 mph - N/A   Mostly Cloudy
10:50 AM 30.2 °F 21.3 °F 30.2 °F 100% 30.18 in 6.2 mi ENE 10.4 mph - N/A   Mostly Cloudy
11:20 AM 30.2 °F 22.6 °F 30.2 °F 100% 30.18 in 6.2 mi ENE 8.1 mph - N/A   Mostly Cloudy
11:50 AM 30.2 °F 23.4 °F 30.2 °F 100% 30.15 in 4.3 mi NE 6.9 mph - N/A Snow Light Snow
12:20 PM 32.0 °F 24.8 °F 30.2 °F 93% 30.15 in 2.5 mi NE 8.1 mph - N/A Snow Light Snow
12:50 PM 32.0 °F 24.8 °F 30.2 °F 93% 30.15 in 3.1 mi ENE 8.1 mph - N/A Snow Light Snow
1:20 PM 32.0 °F 24.2 °F 30.2 °F 93% 30.15 in 6.2 mi NE 9.2 mph - N/A   Mostly Cloudy
1:50 PM 32.0 °F 23.6 °F 30.2 °F 93% 30.15 in 6.2 mi ENE 10.4 mph - N/A   Mostly Cloudy
2:20 PM 32.0 °F 24.8 °F 30.2 °F 93% 30.15 in 6.2 mi ENE 8.1 mph - N/A   Mostly Cloudy
2:50 PM 32.0 °F 24.8 °F 30.2 °F 93% 30.15 in 3.1 mi ENE 8.1 mph - N/A Snow Light Snow
3:20 PM 30.2 °F 22.6 °F 30.2 °F 100% 30.15 in 5.6 mi NE 8.1 mph - N/A Snow Light Snow
3:50 PM 30.2 °F 21.9 °F 30.2 °F 100% 30.15 in 1.2 mi NE 9.2 mph - N/A Snow Snow
4:20 PM 30.2 °F 21.3 °F 30.2 °F 100% 30.12 in 1.2 mi NE 10.4 mph - N/A Snow Snow
4:50 PM 30.2 °F 21.9 °F 30.2 °F 100% 30.12 in 1.2 mi NE 9.2 mph - N/A Snow Snow
5:20 PM 30.2 °F 20.8 °F 28.4 °F 93% 30.12 in 1.2 mi NE 11.5 mph - N/A Snow Snow
5:50 PM 28.4 °F 18.5 °F 28.4 °F 100% 30.12 in 3.1 mi NE 11.5 mph - N/A Snow Light Snow
6:20 PM 28.4 °F 18.0 °F 28.4 °F 100% 30.12 in 1.2 mi ENE 12.7 mph - N/A Snow Light Snow
6:50 PM 28.4 °F 19.7 °F 28.4 °F 100% 30.12 in 2.5 mi NE 9.2 mph - N/A Snow Light Snow
7:20 PM 28.4 °F 19.1 °F 28.4 °F 100% 30.12 in 2.5 mi ENE 10.4 mph - N/A Snow Light Snow
7:50 PM 28.4 °F 19.7 °F 28.4 °F 100% 30.12 in 2.5 mi ENE 9.2 mph - N/A Snow Light Snow
8:20 PM 28.4 °F 19.1 °F 28.4 °F 100% 30.12 in 1.9 mi NNE 10.4 mph - N/A Snow Light Snow
8:50 PM 28.4 °F 19.1 °F 28.4 °F 100% 30.12 in 3.7 mi NNE 10.4 mph - N/A Snow Light Snow
9:20 PM 28.4 °F 18.5 °F 28.4 °F 100% 30.12 in 3.1 mi NNE 11.5 mph - N/A Snow Light Snow
9:50 PM 28.4 °F 19.1 °F 28.4 °F 100% 30.12 in 3.1 mi NNE 10.4 mph - N/A Snow Light Snow
10:20 PM 28.4 °F 20.4 °F 28.4 °F 100% 30.12 in 1.9 mi NNE 8.1 mph - N/A Snow Light Snow
10:50 PM 28.4 °F 20.4 °F 28.4 °F 100% 30.12 in 2.5 mi NNE 8.1 mph - N/A Snow Light Snow
11:20 PM 28.4 °F 21.2 °F 28.4 °F 100% 30.15 in 6.2 mi NE 6.9 mph - N/A Snow Light Snow
11:50 PM 30.2 °F 23.4 °F 28.4 °F 93% 30.15 in 6.2 mi East 6.9 mph - N/A Snow Light Snow